Wind_Speed
9 7 9 11 10 8 8 9 10 10 11 11 10 10 11 11 10 10 9 9 10 13 15 18 25 31 32 31 29 27 25 23 24 26 25 24 24 25 26 25 24 24 24 23 22 21 19 19 18 18 17 17 17 16 14 13 12 11 11 10 10 10 10 11 11 12 12 12 12 12 11 10 10 10 10 10 10 11 12 14 15 15 15 13 11
9 9 12 13 11 10 11 11 11 12 13 12 11 12 13 13 12 11 10 10 11 11 13 15 21 28 32 32 30 27 26 25 24 26 26 25 23 24 26 26 25 25 24 23 23 22 21 20 19 18 18 18 17 17 15 14 14 13 12 11 11 11 11 12 12 13 13 14 13 13 12 11 10 10 10 10 10 10 11 11 13 14 14 14 12
10 12 14 13 13 12 12 12 11 13 13 12 11 12 13 13 13 12 12 12 12 10 11 14 17 24 30 32 31 27 26 25 25 26 26 26 24 24 26 26 26 25 25 24 24 23 22 21 20 19 19 19 18 18 17 16 15 15 14 13 12 13 13 13 14 14 14 15 14 13 12 11 11 10 10 10 10 10 10 10 11 12 13 14 13
11 13 14 14 14 13 12 12 12 13 12 11 10 11 12 13 13 13 13 12 11 11 11 13 16 21 26 30 31 28 26 25 26 27 27 26 25 24 25 26 27 26 25 25 25 24 23 22 21 20 20 19 19 19 18 17 17 16 15 14 14 14 15 15 15 15 15 15 15 13 12 11 11 11 10 10 10 10 10 9 9 10 11 12 13
14 15 15 15 14 12 13 13 12 11 12 12 11 11 12 12 13 13 11 11 11 11 11 12 15 18 22 27 30 29 28 27 26 26 27 28 27 26 25 25 27 27 27 27 26 26 25 24 22 22 21 21 20 20 19 19 19 18 17 16 16 16 16 16 16 16 16 16 15 13 12 11 11 11 11 11 10 10 9 9 9 9 10 11 11
16 16 17 16 14 14 15 14 12 12 13 14 13 12 12 12 13 13 10 10 11 10 11 12 13 16 19 24 27 29 30 29 28 27 27 27 27 28 26 26 26 27 27 28 27 27 26 25 24 23 23 22 22 21 21 20 20 19 19 18 18 18 18 18 18 17 16 17 16 14 13 12 12 13 13 12 11 11 10 10 9 9 9 9 10
16 17 19 18 16 16 17 16 14 14 15 15 14 12 12 12 13 12 10 9 9 9 11 12 12 13 16 20 24 27 29 30 30 29 28 28 28 28 27 26 27 26 27 27 28 28 28 27 26 26 25 24 24 23 23 22 22 21 21 21 21 20 20 20 19 18 18 17 17 17 16 15 15 14 14 14 13 12 12 11 10 10 9 9 9
16 17 19 19 19 18 18 17 16 16 16 15 14 12 12 12 12 12 11 9 9 9 10 12 13 13 14 16 20 24 27 30 31 30 29 29 29 28 28 28 28 27 26 26 27 28 29 29 28 28 27 26 26 25 25 25 24 24 23 23 22 22 21 21 20 19 18 18 18 18 17 17 17 16 16 16 15 14 14 13 12 11 10 10 10
20 20 19 19 20 19 18 18 18 16 15 14 13 12 11 11 11 12 12 11 10 10 10 10 13 15 16 15 16 19 23 28 30 30 30 30 29 29 29 29 28 27 27 27 26 27 29 30 30 30 29 28 28 28 27 27 27 26 26 25 24 23 23 22 21 20 19 19 18 19 18 18 18 17 17 17 17 16 16 15 14 13 12 11 11
22 21 21 21 21 20 18 18 18 18 16 14 14 13 11 10 11 12 12 12 12 11 10 10 12 13 15 16 15 16 18 23 27 29 31 30 30 29 29 29 29 28 28 27 27 27 27 29 30 31 31 30 30 29 29 29 28 28 27 26 25 25 24 23 22 21 20 19 19 20 19 19 19 18 18 18 18 18 18 17 17 16 15 13 13
20 20 22 23 23 23 20 19 19 19 18 16 15 15 13 11 11 12 13 13 12 11 10 12 13 12 13 15 15 15 16 19 23 26 28 29 29 30 30 29 28 27 27 27 27 27 27 27 28 30 31 31 31 31 31 30 30 29 28 28 27 26 25 24 22 21 20 20 20 21 21 21 20 20 20 20 20 20 20 20 19 18 17 16 14
18 18 20 22 24 25 25 23 21 20 19 17 17 16 15 14 13 13 13 13 14 12 11 13 12 12 15 14 13 14 14 15 18 21 24 27 29 29 29 28 27 27 27 26 26 27 27 28 28 28 28 29 30 31 31 31 31 30 29 29 28 27 26 25 23 22 21 21 21 22 23 22 22 21 22 22 22 22 22 22 21 20 18 17 16
14 15 16 18 20 23 25 25 25 24 23 21 19 17 16 16 14 14 15 14 14 14 13 13 11 12 16 17 15 14 15 15 15 16 19 21 24 26 26 27 28 28 28 27 27 27 27 27 27 26 26 26 27 29 31 31 31 30 30 29 28 27 26 25 25 24 22 22 22 22 23 23 23 23 23 24 24 24 24 24 22 21 20 19 18
11 12 13 14 15 17 20 22 24 25 26 25 22 20 18 17 15 14 14 13 12 12 12 12 12 12 12 17 19 17 17 17 15 15 16 18 19 21 24 26 27 28 29 29 28 27 27 26 26 26 26 26 25 26 27 28 30 30 30 29 29 28 28 27 26 26 25 24 24 24 24 24 24 24 25 25 26 26 25 24 23 22 21 20 19
10 10 10 11 12 13 15 17 19 21 23 25 24 22 21 20 16 14 14 12 11 11 11 11 12 12 11 13 17 19 18 16 15 16 18 18 18 19 22 24 26 27 28 29 28 27 27 27 26 26 27 27 26 26 24 25 28 30 30 30 30 30 30 30 29 29 28 28 27 27 27 27 27 27 27 27 27 26 25 24 23 23 22 21 21
7 8 9 9 10 11 12 13 14 15 17 21 22 21 21 21 18 16 16 15 13 12 13 12 12 12 12 11 13 17 19 17 15 15 16 18 19 19 21 22 23 24 25 26 26 25 25 26 25 25 26 26 25 26 27 26 28 30 30 31 31 31 31 32 31 31 31 30 30 29 29 29 29 28 28 27 26 25 24 24 23 23 23 22 22
4 5 6 7 9 10 11 11 11 11 12 14 17 19 21 21 20 19 18 17 16 15 14 14 14 14 13 12 11 11 14 16 17 16 15 17 19 20 21 22 22 22 22 22 22 22 22 22 22 23 23 23 23 24 25 25 27 27 27 28 29 29 30 30 30 30 30 30 30 29 29 29 29 28 26 25 24 23 23 23 23 23 23 24 23
2 3 3 4 6 8 9 10 10 10 10 11 12 14 17 19 20 20 19 19 19 18 17 16 16 16 15 14 12 10 10 12 14 16 17 18 19 20 21 22 23 23 21 21 21 21 21 20 20 20 20 20 21 21 21 21 23 23 23 23 25 26 26 27 27 28 28 29 28 28 27 27 27 26 25 23 23 22 21 22 23 23 24 24 24
3 3 3 3 3 5 6 8 9 9 10 10 9 10 12 15 17 17 18 19 19 19 19 18 19 18 17 17 16 13 12 13 13 13 14 16 18 19 19 21 22 22 22 22 22 21 21 20 20 20 20 21 20 20 20 21 21 22 22 22 23 24 25 26 26 26 27 27 27 27 26 25 25 25 24 23 22 21 21 21 22 23 24 24 25
4 4 4 4 4 4 5 6 6 7 8 8 8 8 9 11 13 14 14 15 16 17 18 19 20 20 19 19 18 16 14 14 15 15 15 14 15 17 18 18 18 20 22 22 22 21 20 21 21 21 21 21 21 20 20 21 22 22 22 22 22 23 24 25 25 26 26 26 26 26 24 23 23 23 23 23 22 21 21 21 22 23 23 24 25
4 4 5 5 5 5 6 6 6 6 6 6 6 6 6 8 10 11 11 12 13 14 15 17 18 19 20 21 20 19 18 19 19 18 17 17 18 19 18 18 18 19 21 21 21 22 22 22 22 22 22 21 20 21 21 21 21 21 21 21 21 22 22 22 23 24 24 24 24 24 23 22 21 21 21 21 22 21 20 21 21 22 22 23 23
3 3 3 4 5 6 7 7 7 7 6 6 5 5 5 6 7 8 9 9 9 10 12 13 14 16 17 19 19 20 21 23 23 22 22 22 23 24 21 21 21 19 19 20 21 22 22 23 23 24 24 22 22 23 23 23 22 22 22 21 21 22 22 22 22 22 23 23 23 23 22 22 21 21 20 20 20 20 20 20 20 20 21 20 20
3 2 2 2 3 5 7 8 8 8 8 7 6 6 6 6 7 7 7 6 6 7 8 9 10 12 13 14 15 17 19 21 22 22 23 24 26 26 25 24 23 22 22 22 22 22 22 22 23 24 24 23 23 24 24 25 25 25 25 25 24 24 24 24 24 24 24 24 24 23 23 22 21 21 21 20 20 20 20 20 19 19 18 18 18
5 4 3 2 1 3 4 6 7 8 8 8 8 7 7 7 7 7 6 6 6 6 6 7 7 8 9 9 10 11 13 14 16 17 19 20 21 22 23 24 24 24 24 24 24 24 24 23 22 22 22 23 25 26 27 28 29 30 30 30 29 28 28 28 27 27 27 27 27 26 25 24 22 21 22 21 20 20 21 22 21 20 19 18 18
6 6 5 4 3 1 1 3 5 6 7 7 7 7 7 7 8 8 8 7 6 6 6 6 6 7 7 7 7 7 8 9 10 11 12 13 15 15 16 17 18 18 19 22 23 24 26 25 24 24 23 25 25 24 24 26 28 31 33 32 32 31 31 31 30 30 31 30 29 28 28 26 24 23 23 23 22 21 22 23 23 23 22 20 19
6 6 6 6 5 4 3 1 1 3 4 5 5 6 6 6 7 8 9 9 9 8 8 8 8 8 8 8 8 8 8 8 9 9 10 10 11 12 12 12 13 13 13 14 16 18 20 22 24 25 26 28 27 24 24 25 26 29 30 30 32 33 33 33 32 32 32 32 32 31 31 29 27 26 27 27 26 24 24 24 24 25 26 24 21
5 6 6 7 7 6 6 4 3 2 3 3 4 4 5 5 5 6 7 8 9 10 10 10 11 11 11 11 11 11 11 11 12 12 12 12 12 13 13 13 13 13 12 12 13 14 15 16 19 21 23 26 27 26 26 26 27 28 26 27 29 32 35 35 35 35 34 33 33 33 33 31 29 29 29 30 30 28 26 25 26 28 29 29 26
4 5 6 6 7 7 7 7 6 5 5 5 5 5 6 6 5 5 5 6 7 8 9 10 11 11 12 13 13 13 14 14 14 14 15 15 15 15 16 16 16 16 15 15 15 16 16 16 18 19 21 23 24 24 24 25 27 27 25 26 26 28 31 33 35 37 37 36 34 34 34 34 32 31 31 32 33 33 29 28 29 29 30 31 30
6 5 6 6 7 7 8 8 8 8 7 7 7 7 8 8 8 7 7 7 7 7 8 8 9 10 10 11 12 12 13 13 13 14 14 15 15 16 16 17 17 17 16 16 16 17 18 18 19 21 22 23 24 24 23 25 27 25 24 25 24 26 28 29 30 33 36 37 37 36 36 36 35 35 34 34 35 35 32 30 29 30 30 29 29
9 8 8 8 8 8 8 8 9 9 9 9 8 8 9 9 10 10 10 10 9 9 9 9 9 10 10 10 11 11 11 11 12 12 12 13 13 14 14 15 15 15 15 15 15 15 17 18 19 20 21 23 24 24 24 26 28 26 25 25 25 26 27 26 27 29 30 33 36 38 38 38 38 37 36 35 35 35 35 33 31 31 31 30 28
12 11 11 11 12 11 10 9 9 10 10 10 9 9 9 9 9 10 11 11 11 11 11 10 10 10 11 11 11 11 11 11 12 12 12 12 12 13 13 14 15 15 16 16 16 15 16 17 18 19 20 21 22 23 23 26 28 27 26 27 28 28 26 25 26 27 28 29 31 35 38 39 40 40 39 37 35 35 37 37 35 34 34 33 29
16 14 13 13 14 15 14 13 11 11 11 11 11 10 10 9 10 10 10 11 11 11 11 12 12 12 12 12 12 12 13 13 13 13 13 14 14 15 15 15 16 16 17 18 18 18 18 18 19 19 20 21 22 22 23 24 25 26 26 27 29 29 28 27 28 28 28 28 29 31 34 36 38 39 40 40 38 37 38 38 37 35 34 33 31
19 18 17 16 17 17 18 17 15 14 13 13 12 12 12 11 11 11 11 11 12 12 13 13 13 14 14 15 14 14 15 15 16 16 16 16 17 17 18 18 18 19 19 19 20 20 20 20 20 20 21 21 22 23 23 24 24 24 25 26 27 28 29 29 30 30 30 29 29 30 31 32 33 35 37 38 38 39 39 38 37 35 34 34 33
21 22 22 21 20 20 20 20 18 17 17 16 16 15 14 14 14 13 13 14 13 14 14 14 15 15 16 17 18 18 18 18 19 19 20 20 20 21 21 21 21 21 21 21 21 22 22 22 22 22 22 22 22 23 24 24 24 24 25 25 27 28 29 29 30 31 32 31 30 30 30 31 32 32 33 35 36 37 38 38 38 37 35 35 35
23 24 25 25 24 24 24 23 22 21 20 19 19 18 17 17 17 16 16 16 16 16 16 16 17 17 17 18 19 20 21 21 22 22 23 23 23 24 24 25 25 25 24 24 24 24 24 23 23 23 24 23 22 23 24 23 24 25 25 26 27 28 29 29 29 30 33 33 31 31 31 32 33 32 32 33 34 36 37 38 38 37 36 35 36
25 25 27 28 28 28 27 26 25 24 23 22 21 20 20 19 19 19 19 19 18 18 18 18 18 19 19 19 20 21 22 23 24 24 25 26 26 26 27 27 28 29 28 28 27 28 28 27 25 25 25 25 24 24 25 25 25 25 25 26 28 29 30 30 30 30 32 33 32 31 32 33 34 34 34 34 34 34 35 37 37 36 36 35 36
27 28 29 29 30 30 29 29 28 27 26 25 24 24 23 22 22 22 22 22 21 21 21 21 21 21 21 21 21 22 23 24 24 26 27 27 28 29 29 30 30 31 31 30 30 30 31 31 30 29 28 27 27 26 27 27 27 26 26 27 28 30 31 31 31 32 32 33 33 32 33 33 34 34 35 35 35 34 34 35 36 36 36 35 35
31 31 31 31 31 32 32 32 31 30 29 28 27 27 26 25 24 25 25 25 25 25 25 25 25 24 24 25 24 24 25 25 25 26 27 28 29 30 31 31 32 33 33 33 33 32 32 32 33 32 32 31 30 29 29 29 29 28 28 29 29 30 31 32 32 33 33 34 34 34 34 34 35 35 35 35 35 35 35 35 36 36 37 36 35
34 34 34 33 34 34 35 35 34 33 33 32 31 30 30 27 26 27 28 29 29 28 28 28 28 27 27 28 28 28 28 28 28 28 28 29 30 30 31 32 33 34 35 35 35 35 34 34 34 34 34 34 34 33 32 32 32 31 31 31 31 31 31 32 32 33 34 35 35 35 36 36 37 37 36 36 36 35 35 35 36 36 37 37 37
37 36 37 37 37 36 36 36 37 37 37 37 36 34 32 30 28 28 29 30 30 31 31 31 31 31 31 30 30 30 30 30 31 31 31 31 32 32 32 33 34 35 36 36 37 37 37 36 36 36 36 35 35 35 34 35 35 35 34 34 34 33 33 33 33 33 34 35 35 36 37 38 38 39 39 38 37 36 36 36 36 36 36 36 37
40 39 40 41 39 38 39 39 38 38 37 37 35 32 30 30 29 29 29 30 31 32 33 34 34 34 34 34 34 33 32 32 33 34 34 34 34 34 35 35 36 36 37 37 37 38 38 38 39 38 38 38 37 36 36 37 37 38 38 38 37 36 35 35 34 34 35 36 36 37 38 38 38 40 41 40 39 38 38 37 36 35 35 36 36
41 42 42 43 42 41 42 42 38 35 33 32 31 29 27 28 28 29 29 30 32 33 34 36 36 37 37 37 37 36 35 34 34 35 36 36 37 37 37 37 38 38 38 38 38 39 39 40 40 40 41 41 39 38 38 38 38 39 40 41 40 39 38 37 36 36 36 37 37 38 38 39 39 40 41 42 41 40 39 39 38 36 35 36 36
41 43 44 44 44 43 44 43 39 35 35 34 31 29 28 28 29 29 30 31 33 35 36 37 38 40 40 40 40 40 38 37 36 37 37 37 38 38 38 39 39 39 40 40 40 40 41 42 42 42 43 43 42 42 41 40 40 40 40 41 42 42 41 40 38 37 37 38 39 39 38 39 40 41 41 41 42 42 41 40 39 37 37 38 38
39 42 42 41 41 42 43 43 41 39 38 37 35 34 33 32 32 31 32 34 35 36 37 38 39 41 42 42 42 42 41 41 40 40 40 40 40 39 39 40 41 41 42 42 43 43 43 44 44 44 45 45 45 45 45 44 43 42 42 42 42 43 43 43 42 40 38 38 40 40 39 38 39 41 42 42 42 43 43 42 40 38 38 39 39
40 41 40 39 39 39 40 40 40 39 38 37 38 38 37 35 34 35 36 36 37 38 39 39 40 42 43 44 44 44 44 43 44 44 43 43 42 42 41 42 42 43 43 44 45 45 45 46 46 46 46 47 48 48 47 47 47 46 45 45 44 44 44 44 45 44 41 40 40 41 41 39 39 40 42 43 43 43 43 44 42 40 40 40 40
43 42 42 41 40 39 38 38 39 40 40 39 40 39 38 37 36 37 38 39 39 40 40 40 42 43 44 43 43 43 44 45 46 46 45 44 43 43 43 44 44 44 44 45 45 45 46 47 48 48 48 48 49 49 49 50 50 50 49 48 47 46 45 45 46 46 45 42 41 42 43 41 39 40 42 43 43 42 44 44 43 41 41 41 41
42 42 43 43 42 41 39 39 40 41 42 42 42 40 39 38 38 39 40 40 40 40 40 41 42 43 42 42 41 42 43 45 47 47 46 45 44 44 44 44 44 45 45 45 46 46 46 47 48 49 49 49 49 49 50 50 51 51 51 50 50 50 49 48 47 47 46 45 43 44 45 43 40 40 41 42 42 42 43 46 45 42 41 42 42
41 41 41 41 42 41 41 41 42 42 42 42 41 40 39 39 39 40 41 40 40 40 40 41 42 42 42 41 42 43 45 47 48 47 45 44 44 44 44 44 45 45 45 45 45 45 46 47 49 50 50 50 50 50 50 50 51 51 51 51 51 51 52 51 50 49 48 47 45 45 46 45 43 41 41 41 42 42 44 47 46 43 41 42 42
42 42 42 42 42 41 40 41 42 41 41 40 40 40 41 41 40 40 40 38 37 38 39 40 41 42 42 42 42 45 47 48 48 47 46 46 46 46 46 46 46 46 46 46 46 46 46 48 49 50 50 51 51 51 50 50 51 51 52 52 51 52 52 53 53 52 51 49 48 47 47 47 45 43 41 40 41 42 44 48 47 43 40 41 42
42 43 43 42 42 41 41 41 41 39 38 38 39 40 41 41 40 40 39 38 38 38 38 39 40 41 42 42 44 47 49 49 48 48 48 48 49 49 49 49 49 49 49 48 48 49 49 49 48 49 49 49 50 50 50 50 51 52 53 53 52 52 53 54 55 55 54 53 51 49 49 48 47 45 42 41 42 43 45 48 48 44 41 40 41
42 42 41 40 40 40 39 39 39 38 37 37 39 40 40 40 40 39 39 40 40 39 40 41 43 43 43 45 48 50 50 48 47 48 49 50 51 52 52 52 52 52 51 51 51 52 52 51 50 49 49 49 49 49 50 50 50 51 53 54 54 54 55 55 56 56 57 56 54 53 51 49 48 47 45 44 44 44 45 48 49 45 42 41 41
Wind_Direction
245 251 257 256 252 249 252 255 256 258 260 261 264 268 275 278 277 278 268 248 227 209 205 208 206 207 209 210 212 213 214 214 215 217 217 218 220 221 222 222 223 224 227 228 229 230 230 232 232 232 232 234 240 244 244 245 251 256 262 271 280 289 297 303 309 315 318 321 324 326 330 335 343 351 359 2 5 11 14 15 15 17 20 25 30
248 251 255 257 254 245 245 250 252 256 260 259 257 261 268 273 277 282 276 254 237 218 211 214 210 208 209 210 212 213 216 217 217 219 218 218 220 221 221 222 223 224 226 227 228 228 230 231 231 231 230 231 235 240 242 243 248 254 261 269 276 283 290 297 303 308 313 317 320 322 323 325 330 337 346 352 356 360 5 8 9 10 13 17 21
245 246 251 254 250 245 247 253 253 256 264 268 264 259 259 265 272 277 276 264 250 231 216 217 215 212 211 211 212 213 217 220 220 222 221 220 222 222 221 222 224 225 226 227 228 228 229 231 232 232 231 230 233 238 241 243 248 252 259 266 271 278 285 291 296 302 308 313 317 320 322 322 324 327 332 338 345 349 353 357 1 2 5 9 12
242 243 247 249 249 249 253 255 255 258 267 272 269 263 260 262 267 273 273 265 255 240 223 217 217 217 214 213 213 213 217 220 222 224 223 221 222 222 222 223 224 226 226 227 228 229 230 231 233 234 234 233 234 237 241 244 248 252 257 262 266 272 279 285 290 296 302 308 313 315 318 320 321 322 323 325 330 337 341 344 349 353 356 0 4
242 246 249 251 253 253 254 255 257 264 269 269 266 262 259 258 261 269 273 269 261 249 233 221 217 218 218 216 214 214 218 220 221 224 224 224 223 222 222 223 224 225 227 228 229 230 231 232 234 236 237 237 237 239 242 244 248 252 255 259 263 269 275 279 284 289 295 301 306 309 311 316 319 319 319 319 319 322 328 332 335 340 345 349 354
238 243 250 251 250 251 254 256 260 267 268 267 266 264 262 260 260 262 265 269 270 259 244 233 223 218 218 217 215 216 219 220 221 224 225 226 226 224 224 226 225 225 226 227 229 231 232 233 234 236 238 240 241 242 243 246 249 253 256 259 263 269 272 274 278 281 286 292 297 299 301 307 312 315 316 316 315 314 315 318 321 325 330 335 342
238 239 246 250 249 250 254 257 261 266 267 267 267 266 264 261 262 262 257 259 263 258 247 241 234 226 221 217 214 217 221 221 223 225 226 227 227 225 225 227 228 227 227 228 229 231 233 235 236 237 239 241 243 245 246 248 251 254 258 261 265 268 270 272 274 276 278 283 288 291 292 295 300 307 311 312 313 312 309 308 309 311 314 319 327
243 241 244 250 252 251 254 259 261 263 266 268 268 267 263 258 258 258 254 251 252 255 248 239 233 225 223 223 217 217 220 222 225 227 229 228 227 227 226 226 227 228 229 229 230 232 233 235 237 238 240 241 244 246 248 250 252 255 258 262 266 268 270 271 272 272 273 275 280 284 286 288 292 297 302 306 308 310 309 305 302 302 303 306 312
248 246 245 248 253 253 253 256 258 260 261 263 264 261 258 259 259 254 252 250 248 253 254 243 236 225 219 223 223 221 219 221 226 229 230 230 228 229 229 228 228 228 230 230 230 233 235 235 237 239 241 242 243 246 248 251 254 257 260 263 266 268 270 271 271 270 270 271 274 277 280 284 287 291 295 299 301 305 307 304 300 297 295 296 299
250 247 244 246 252 254 251 251 256 259 259 258 259 259 257 255 255 251 250 250 246 249 252 245 242 235 223 220 223 224 221 221 224 227 229 230 230 231 231 230 231 229 230 231 231 234 238 239 239 239 242 244 246 247 249 252 255 258 262 264 267 269 270 271 270 269 267 267 269 272 275 279 283 288 292 295 296 298 301 302 299 294 291 289 290
254 249 244 245 249 253 253 252 254 257 257 256 256 260 262 255 250 249 248 248 246 246 244 238 237 238 231 222 219 221 223 223 222 224 227 229 230 231 231 230 232 233 233 234 233 234 237 240 241 241 242 246 248 250 252 254 257 259 262 265 267 269 270 271 271 269 267 265 265 268 271 274 279 284 289 292 292 293 296 297 296 292 289 285 284
257 254 249 247 248 251 253 253 254 255 256 255 254 259 265 262 256 255 252 246 241 240 239 243 246 243 235 224 215 214 217 219 220 221 224 228 229 230 231 232 233 235 235 234 233 233 235 239 243 244 244 247 250 252 254 256 259 260 262 264 266 266 268 270 271 271 269 266 264 267 270 273 276 281 285 288 289 289 292 293 291 289 287 284 281
257 256 253 251 249 249 251 251 252 253 254 255 256 260 265 267 261 255 255 246 241 241 240 250 261 257 243 232 227 222 215 212 212 217 221 225 228 227 229 232 234 236 236 236 235 235 236 240 243 246 247 249 251 253 254 256 258 261 262 263 265 266 266 268 270 271 270 268 266 267 269 271 274 278 281 284 285 287 288 288 286 284 283 282 280
256 254 253 252 250 249 249 250 249 249 251 253 256 256 258 263 260 252 254 253 252 251 246 250 261 269 261 243 236 230 225 215 200 203 215 221 226 227 228 230 233 237 238 238 239 238 238 242 245 247 248 248 250 255 257 256 257 258 261 263 264 266 267 268 269 270 271 270 269 268 269 270 273 276 279 281 283 285 286 285 281 279 279 278 277
255 251 249 247 247 248 247 249 249 247 248 249 251 250 252 257 256 250 250 252 257 258 255 255 258 270 279 261 240 228 229 229 212 202 206 212 219 224 227 229 232 236 238 239 241 242 241 242 245 247 248 247 247 251 255 257 257 257 258 261 264 266 268 270 271 272 272 272 271 271 271 272 274 275 278 280 281 283 282 280 276 274 275 275 275
259 255 250 245 243 244 244 247 249 248 245 246 246 244 246 250 251 248 249 251 253 254 257 258 257 262 272 277 259 233 226 232 233 217 205 209 213 217 223 226 229 233 235 238 241 245 245 243 244 247 250 250 249 249 250 254 259 260 259 259 262 265 268 270 272 273 274 274 274 274 275 276 277 278 279 279 279 280 278 275 271 269 270 272 272
267 263 255 248 244 244 244 245 247 249 247 246 245 242 242 245 247 248 251 254 252 248 250 250 252 255 257 265 271 255 235 230 231 228 223 221 214 213 218 219 222 226 228 233 238 243 246 245 246 248 252 255 255 254 253 255 258 262 263 262 262 264 267 269 272 274 275 275 276 276 278 278 280 280 280 280 279 277 275 272 269 267 267 268 269
290 287 279 261 248 244 245 246 247 248 249 249 247 242 241 243 247 249 251 254 254 249 246 242 245 248 248 253 259 265 268 257 240 230 231 232 225 221 218 215 217 219 219 223 228 233 237 238 242 245 250 254 255 257 259 260 259 261 263 264 265 266 268 270 271 273 275 276 277 278 279 280 280 281 281 280 279 276 273 270 268 266 266 267 267
284 288 290 284 266 253 248 248 249 251 252 254 251 245 243 243 246 249 250 252 252 251 246 241 242 244 244 248 252 253 266 279 271 256 247 243 240 235 227 223 221 218 219 220 223 228 230 232 236 240 243 247 250 253 256 257 259 261 262 265 267 269 270 271 273 275 276 277 279 279 280 281 281 281 280 278 277 275 272 269 267 265 264 265 265
278 275 272 272 270 263 258 255 255 256 259 261 259 252 246 246 249 251 250 249 250 251 249 245 245 245 245 248 254 254 254 263 270 274 275 270 263 255 247 242 231 221 224 226 225 228 228 230 234 236 239 242 246 249 250 252 254 257 260 262 265 268 270 272 273 275 276 278 279 281 281 282 282 282 280 278 275 272 270 268 266 265 264 264 266
289 279 269 263 258 255 255 258 259 260 263 266 265 257 247 245 249 252 253 252 250 251 252 250 249 250 250 251 255 255 252 252 255 258 265 271 273 272 268 262 248 234 233 234 234 234 233 234 236 238 240 241 244 249 249 251 252 254 256 258 261 263 265 267 269 271 273 275 278 280 282 283 284 283 281 278 276 273 270 268 265 265 265 265 266
336 307 280 265 255 248 245 248 253 257 261 264 263 257 249 245 247 252 256 255 252 250 249 250 250 250 251 251 251 251 250 250 251 250 251 254 257 262 266 266 265 263 257 252 249 246 245 246 243 242 245 244 244 248 250 252 254 255 256 256 258 260 261 263 266 268 270 272 274 277 280 283 284 281 277 276 275 273 271 269 267 267 267 267 268
27 11 330 285 256 245 240 240 245 250 254 258 259 255 251 247 250 254 256 255 252 250 248 247 248 248 249 248 247 246 247 248 250 250 251 251 251 253 255 257 260 266 268 270 271 269 266 263 255 250 251 252 250 251 254 257 257 258 258 257 256 257 260 262 265 267 269 270 271 273 276 278 280 279 276 272 272 272 271 270 271 272 271 272 274
45 42 34 17 298 244 235 235 239 245 251 255 258 258 255 252 253 255 258 259 254 251 252 250 249 250 250 250 247 244 244 245 248 249 250 251 253 254 255 254 253 254 257 262 267 270 271 271 269 265 265 265 264 262 261 262 262 260 258 257 257 257 259 262 265 268 269 269 270 271 273 275 275 274 274 273 272 273 273 273 275 276 276 277 279
41 43 44 38 25 359 247 234 236 242 249 254 258 260 260 258 257 259 260 260 258 255 254 252 251 252 252 253 253 250 246 244 245 248 249 250 251 253 255 255 254 253 251 251 253 256 259 261 263 262 263 264 265 264 262 261 260 258 256 255 256 258 259 261 263 265 267 268 269 270 272 274 273 271 271 272 272 273 273 274 275 275 275 277 278
28 29 32 31 26 20 10 341 271 256 256 258 262 263 264 263 259 260 261 261 260 257 254 253 251 250 251 251 251 251 251 250 249 250 250 250 251 252 253 253 253 252 251 251 252 253 255 256 255 254 254 255 257 257 256 255 254 254 254 253 252 254 256 258 260 261 263 266 269 270 270 271 271 270 269 270 272 273 275 275 275 275 275 275 275
13 12 13 19 20 17 14 7 356 333 301 287 285 283 282 280 273 267 265 266 265 263 260 259 258 257 256 255 255 255 255 254 254 255 255 255 255 256 257 257 256 255 253 251 250 251 252 253 255 256 255 256 256 255 254 255 257 260 261 258 254 253 253 254 255 257 259 262 265 268 269 269 269 268 267 269 271 273 275 276 277 276 275 275 276
340 349 351 1 9 11 13 10 5 0 347 330 320 315 313 313 312 305 292 283 279 275 272 269 267 267 265 264 263 263 263 262 262 262 262 262 262 262 262 262 262 260 259 257 255 254 252 250 252 255 255 257 258 258 259 261 262 264 266 263 260 257 255 254 254 254 255 257 260 262 265 266 266 265 266 268 270 271 273 275 277 277 275 273 274
299 314 322 333 348 357 4 7 7 6 360 349 338 330 328 328 327 326 321 313 304 296 290 284 280 277 275 273 271 270 269 267 266 266 266 267 267 267 267 267 266 265 262 259 257 258 258 255 254 255 255 256 258 259 261 263 264 265 266 265 264 262 260 259 258 256 254 254 255 257 260 262 264 264 265 267 268 268 269 271 273 275 275 271 268
285 290 296 305 317 329 343 353 357 1 2 358 353 345 339 334 330 329 326 323 320 314 308 302 296 291 287 284 282 281 278 276 273 271 270 270 270 271 272 272 272 272 271 266 261 261 262 261 260 260 260 260 261 261 261 263 264 265 266 267 265 263 264 265 265 262 258 255 254 254 255 258 260 262 264 265 266 265 267 268 268 270 273 270 266
279 281 282 290 299 305 314 328 337 345 350 352 354 353 348 343 338 332 327 323 321 318 314 309 304 300 296 293 290 288 285 283 281 279 278 277 275 275 276 276 276 277 278 276 272 270 268 267 267 267 266 266 266 265 264 265 266 266 267 267 266 264 265 265 265 264 263 259 256 254 254 255 257 259 261 262 263 263 264 267 268 269 271 271 268
275 277 278 283 289 294 299 306 314 322 330 335 340 343 343 343 341 335 328 323 318 313 309 306 305 302 299 294 291 289 287 285 283 281 281 281 282 282 281 280 279 278 279 278 277 276 275 273 272 272 271 270 270 268 266 266 267 268 268 268 268 268 267 266 264 264 264 263 261 258 257 256 257 258 260 260 261 261 262 265 266 267 267 267 265
271 274 275 276 280 286 291 294 298 303 309 315 321 326 330 332 332 330 327 323 319 314 308 304 301 299 296 293 290 287 285 284 283 282 281 280 280 281 281 281 280 278 277 277 276 276 275 275 275 274 273 273 273 272 271 270 270 269 268 268 269 270 270 269 268 267 266 265 264 263 263 262 260 260 260 261 260 260 261 262 263 264 264 263 262
266 269 271 272 274 277 281 284 287 291 295 300 305 310 315 319 321 321 321 320 319 318 315 310 305 300 297 295 292 290 288 287 286 285 284 284 284 283 283 283 283 281 279 278 278 276 276 277 277 277 276 274 274 274 274 274 274 273 271 270 270 270 270 270 271 271 270 267 266 266 266 266 265 264 262 262 262 261 261 261 261 262 262 262 261
261 264 267 269 270 272 274 276 279 282 286 289 292 296 300 305 308 310 312 312 313 314 314 312 310 306 301 297 294 292 291 290 289 288 288 288 288 289 289 289 288 287 286 285 283 282 280 280 280 280 280 279 278 277 276 276 276 275 275 274 273 272 272 272 271 271 272 272 270 268 267 267 267 267 266 264 264 263 262 261 261 261 261 261 260
257 260 262 265 268 270 272 274 276 278 279 281 282 284 287 292 296 300 302 303 305 307 307 308 307 305 302 299 296 293 292 290 289 289 288 288 288 289 289 289 289 289 288 288 287 287 286 285 283 281 280 280 280 280 280 279 277 276 276 276 276 275 275 274 273 272 273 275 275 272 269 268 268 268 268 267 266 264 263 262 261 261 261 261 262
252 255 258 262 265 267 269 271 272 272 273 274 274 276 278 281 286 290 293 296 298 300 301 302 303 302 301 300 298 295 293 291 289 288 288 288 288 288 288 288 288 288 287 287 286 286 286 287 287 285 283 282 281 280 280 280 279 277 276 275 275 276 276 277 276 276 276 277 277 275 272 271 269 268 267 267 267 267 266 265 263 262 262 262 263
250 255 257 259 262 265 268 269 270 270 270 270 271 273 275 276 279 283 286 289 292 294 297 299 300 299 299 299 299 297 295 294 292 291 289 288 287 287 287 287 286 286 286 286 285 284 284 284 285 285 284 284 283 282 282 281 279 278 277 275 273 273 274 275 276 277 278 278 279 278 276 274 272 270 269 268 267 267 267 267 266 264 262 261 261
256 259 258 257 259 263 266 269 271 271 270 269 268 268 270 273 277 282 285 287 289 292 295 297 297 297 296 297 297 296 295 295 295 294 292 291 289 287 286 285 284 284 284 284 284 283 282 282 281 281 281 282 282 283 282 282 280 279 277 276 274 273 273 273 274 274 275 277 277 278 278 277 275 275 273 270 269 268 267 266 266 266 266 264 262
259 259 258 257 260 263 265 267 269 271 272 272 271 270 272 275 279 284 286 287 290 292 294 295 295 295 294 295 296 296 295 294 294 294 295 294 293 291 289 286 284 283 283 282 282 282 281 281 280 279 279 278 279 280 281 281 281 279 277 276 275 274 274 274 273 274 274 275 275 275 276 276 276 277 276 274 272 271 269 266 265 265 265 266 264
259 260 260 260 262 264 264 265 268 271 275 279 280 280 280 279 279 282 285 287 288 290 291 292 293 292 291 291 293 296 296 294 292 292 293 294 293 292 291 290 288 286 285 283 282 282 281 280 280 279 279 278 277 278 279 279 280 279 279 277 276 275 275 274 274 274 274 273 273 273 273 274 274 275 276 276 274 272 271 270 268 266 265 264 263
259 260 259 259 261 262 264 267 270 272 274 278 281 281 278 274 274 279 283 285 285 285 287 288 289 289 289 287 288 291 295 296 293 290 290 291 291 291 290 290 290 289 288 287 286 284 283 281 280 280 280 279 279 278 278 278 278 278 279 279 279 278 277 276 275 275 274 272 271 271 271 273 273 272 273 274 274 273 271 270 270 268 265 262 261
258 258 258 258 259 262 266 270 273 273 273 276 278 277 274 272 274 278 280 281 281 281 282 284 285 286 286 284 283 285 290 295 294 291 288 287 286 287 287 288 288 289 289 289 289 288 286 284 282 281 281 281 281 280 280 279 278 278 278 279 280 280 280 279 277 275 273 273 272 271 270 270 271 271 270 270 271 272 271 269 268 267 265 262 260
258 259 260 261 261 263 265 269 271 272 273 274 275 276 276 275 277 278 278 278 278 278 278 280 280 281 283 283 281 280 284 291 295 293 290 286 283 282 282 284 286 287 288 289 290 289 288 287 285 284 283 283 283 282 282 281 281 280 279 279 279 279 280 280 279 276 274 273 273 273 272 270 268 269 269 269 268 269 269 269 267 264 262 262 261
262 263 264 265 265 265 266 267 269 271 272 272 272 274 276 277 278 278 277 276 275 274 275 276 277 279 280 282 281 280 282 287 292 292 291 288 285 281 279 279 281 283 284 286 288 288 288 287 286 285 285 285 285 285 285 284 284 282 281 280 279 278 277 278 278 278 276 274 273 274 274 272 268 267 267 267 267 267 267 267 266 263 261 260 260
265 266 267 267 268 268 268 268 268 269 271 272 272 274 276 277 278 276 275 273 272 272 274 276 277 279 281 282 282 282 283 286 289 290 290 289 287 285 282 281 281 281 281 282 284 285 286 285 285 285 285 285 285 285 285 285 285 284 284 283 282 280 278 277 277 278 278 277 274 273 274 273 269 267 266 265 265 266 266 265 264 262 261 259 258
264 265 266 267 267 268 269 269 269 269 270 271 272 273 274 274 274 273 272 271 271 273 275 277 279 281 282 283 284 285 285 286 288 288 288 289 288 288 286 285 284 284 284 284 285 285 285 284 283 283 282 282 282 282 283 283 283 283 283 283 283 282 281 280 279 278 278 277 275 273 274 273 269 266 265 264 263 263 263 263 262 261 260 259 258
266 265 265 265 265 266 266 266 267 268 269 269 270 271 270 270 271 271 270 270 271 273 276 278 280 282 283 285 286 286 287 288 288 288 289 289 289 289 289 288 287 286 286 287 287 287 286 285 283 282 282 281 280 280 279 279 280 280 280 280 280 281 281 281 281 279 277 276 274 272 272 271 268 266 264 262 261 261 261 262 261 260 259 259 258
267 267 267 266 266 267 267 266 267 267 268 268 269 269 270 270 271 271 272 272 273 275 276 278 281 283 284 284 285 287 289 290 290 291 291 292 292 291 290 290 289 288 288 289 288 287 285 283 282 281 281 281 280 280 279 279 278 278 278 278 278 278 279 280 279 279 278 276 273 270 269 269 268 266 264 261 258 257 258 259 260 259 258 257 257
267 266 267 267 268 268 268 268 269 268 268 268 268 268 270 271 272 274 274 276 278 277 277 279 283 284 284 284 286 289 290 290 292 294 294 294 293 292 292 292 291 291 291 291 289 287 285 283 281 281 280 279 279 279 279 278 278 277 277 278 277 276 276 277 277 277 277 275 273 270 268 267 266 264 262 261 258 255 254 256 258 258 256 255 256
266 266 266 266 267 267 268 268 268 267 266 265 265 266 268 271 273 275 275 276 279 280 280 282 285 286 286 285 287 290 290 289 292 293 293 292 293 293 293 293 292 292 292 291 289 287 286 285 284 283 282 281 279 278 277 276 275 275 276 276 276 274 274 274 274 274 274 274 273 271 269 267 265 262 261 260 258 254 252 254 255 256 255 254 254
Height
3154 3156 3155 3154 3154 3155 3155 3155 3155 3155 3156 3156 3157 3157 3157 3157 3157 3156 3156 3157 3157 3159 3160 3161 3161 3163 3165 3167 3169 3171 3173 3174 3175 3176 3177 3178 3179 3180 3182 3183 3184 3184 3185 3186 3187 3187 3188 3189 3189 3190 3191 3191 3192 3192 3193 3193 3193 3194 3194 3194 3194 3194 3194 3194 3193 3193 3193 3193 3192 3192 3192 3191 3191 3190 3189 3189 3188 3187 3186 3186 3185 3184 3183 3182 3181
3155 3155 3153 3152 3154 3154 3154 3153 3154 3154 3154 3155 3156 3156 3156 3156 3156 3156 3156 3156 3156 3158 3159 3160 3161 3162 3163 3165 3167 3169 3171 3172 3173 3174 3175 3176 3178 3179 3180 3181 3182 3183 3184 3184 3185 3186 3186 3187 3188 3188 3189 3190 3190 3191 3191 3192 3192 3193 3193 3193 3193 3193 3193 3193 3193 3192 3192 3192 3192 3192 3191 3191 3190 3190 3189 3189 3188 3187 3187 3186 3185 3184 3183 3183 3182
3154 3153 3151 3152 3152 3152 3152 3152 3153 3153 3153 3154 3155 3156 3155 3155 3155 3155 3155 3155 3155 3156 3158 3159 3160 3161 3162 3164 3166 3168 3170 3171 3172 3173 3174 3175 3176 3177 3178 3179 3180 3181 3182 3183 3183 3184 3185 3185 3186 3187 3187 3188 3189 3189 3190 3190 3191 3191 3192 3192 3192 3192 3192 3192 3192 3192 3191 3191 3191 3191 3191 3190 3190 3189 3189 3189 3188 3187 3187 3186 3185 3185 3184 3183 3182
3152 3151 3150 3150 3151 3151 3152 3151 3151 3152 3153 3154 3155 3155 3154 3154 3154 3154 3154 3154 3154 3154 3155 3157 3159 3160 3161 3163 3165 3167 3168 3169 3170 3171 3173 3173 3174 3175 3176 3177 3178 3179 3180 3181 3182 3183 3183 3184 3185 3185 3186 3187 3187 3188 3188 3189 3189 3190 3190 3191 3191 3191 3191 3191 3191 3191 3191 3191 3190 3190 3190 3190 3189 3189 3189 3188 3188 3187 3187 3186 3186 3185 3184 3183 3182
3150 3149 3149 3149 3150 3151 3150 3150 3150 3151 3152 3152 3152 3152 3152 3152 3152 3152 3153 3153 3152 3152 3154 3155 3157 3159 3160 3161 3163 3165 3166 3167 3169 3170 3171 3172 3172 3173 3174 3175 3176 3177 3178 3179 3180 3181 3182 3182 3183 3184 3185 3185 3186 3186 3187 3188 3188 3189 3189 3189 3189 3190 3190 3190 3190 3190 3190 3190 3190 3190 3189 3189 3189 3188 3188 3188 3187 3187 3187 3186 3186 3185 3184 3183 3183
3148 3148 3147 3148 3149 3149 3148 3148 3150 3150 3150 3150 3150 3151 3151 3151 3151 3151 3151 3151 3151 3151 3152 3153 3155 3157 3158 3160 3162 3163 3164 3165 3167 3168 3169 3170 3171 3171 3173 3173 3174 3175 3176 3177 3178 3179 3180 3181 3182 3182 3183 3184 3184 3185 3185 3186 3187 3187 3187 3188 3188 3188 3188 3188 3189 3189 3189 3189 3189 3189 3189 3188 3188 3188 3187 3187 3187 3186 3186 3186 3185 3185 3184 3184 3183
3146 3146 3146 3146 3147 3147 3147 3147 3149 3148 3148 3148 3149 3150 3150 3150 3149 3149 3150 3150 3150 3150 3150 3151 3152 3154 3156 3158 3159 3161 3162 3163 3165 3166 3167 3168 3169 3170 3171 3172 3173 3173 3174 3175 3176 3177 3178 3179 3180 3180 3181 3182 3182 3183 3184 3184 3185 3185 3186 3186 3186 3186 3186 3187 3187 3187 3187 3187 3187 3187 3187 3187 3187 3187 3186 3186 3186 3186 3185 3185 3184 3184 3184 3183 3183
3145 3145 3145 3145 3145 3145 3146 3146 3147 3147 3146 3146 3147 3148 3148 3148 3148 3148 3148 3149 3149 3149 3149 3150 3150 3151 3154 3155 3157 3159 3160 3162 3163 3164 3165 3166 3167 3168 3169 3170 3171 3171 3172 3173 3174 3175 3176 3177 3178 3179 3179 3180 3181 3181 3182 3182 3183 3183 3184 3184 3184 3185 3185 3185 3185 3185 3186 3186 3186 3186 3186 3186 3186 3186 3186 3185 3185 3185 3184 3184 3184 3183 3183 3183 3182
3142 3144 3144 3144 3143 3144 3145 3145 3145 3145 3145 3145 3145 3146 3146 3146 3147 3147 3147 3148 3148 3148 3149 3149 3149 3149 3151 3153 3155 3157 3158 3160 3161 3162 3163 3164 3165 3166 3167 3168 3169 3170 3171 3171 3172 3173 3174 3175 3176 3176 3177 3178 3179 3179 3180 3180 3181 3181 3181 3182 3182 3182 3183 3183 3183 3183 3184 3184 3184 3184 3184 3184 3184 3185 3184 3184 3184 3184 3183 3183 3183 3182 3182 3182 3181
3140 3142 3143 3143 3142 3142 3144 3144 3143 3143 3143 3143 3144 3144 3144 3145 3145 3145 3146 3146 3147 3147 3148 3148 3148 3148 3149 3151 3153 3155 3156 3158 3159 3159 3160 3161 3163 3164 3165 3166 3167 3168 3169 3170 3170 3171 3172 3172 3173 3174 3175 3176 3177 3177 3178 3178 3179 3179 3179 3179 3180 3180 3180 3180 3181 3181 3181 3182 3182 3182 3182 3183 3183 3183 3183 3183 3183 3182 3182 3182 3181 3181 3181 3180 3180
3137 3139 3140 3141 3140 3140 3141 3142 3142 3141 3141 3142 3142 3142 3142 3143 3143 3143 3144 3145 3145 3146 3147 3147 3147 3147 3148 3149 3151 3152 3154 3155 3156 3157 3158 3159 3160 3161 3163 3164 3165 3166 3167 3168 3169 3169 3170 3170 3171 3172 3173 3174 3174 3175 3176 3176 3177 3177 3177 3177 3177 3178 3178 3178 3178 3179 3179 3180 3180 3180 3180 3181 3181 3181 3181 3181 3181 3181 3180 3180 3180 3180 3180 3179 3179
3135 3136 3137 3138 3139 3138 3139 3139 3140 3140 3140 3140 3140 3140 3140 3141 3141 3142 3142 3142 3143 3144 3145 3145 3146 3146 3146 3147 3148 3150 3151 3152 3154 3155 3156 3157 3158 3160 3161 3162 3163 3164 3165 3166 3166 3167 3168 3168 3169 3170 3171 3171 3172 3172 3173 3174 3174 3175 3175 3175 3175 3175 3175 3175 3176 3176 3177 3177 3178 3178 3178 3179 3179 3179 3179 3179 3179 3179 3179 3179 3178 3178 3178 3178 3177
3133 3133 3134 3135 3136 3136 3136 3137 3138 3138 3138 3138 3139 3139 3139 3139 3139 3140 3140 3140 3141 3142 3143 3143 3144 3144 3145 3145 3146 3147 3149 3149 3151 3153 3154 3155 3156 3157 3159 3159 3160 3161 3162 3164 3164 3165 3166 3166 3167 3168 3169 3169 3169 3169 3170 3171 3172 3172 3172 3172 3172 3173 3173 3173 3173 3173 3174 3175 3175 3176 3176 3176 3177 3177 3177 3177 3177 3176 3176 3176 3176 3176 3176 3176 3176
3131 3132 3132 3133 3134 3134 3134 3134 3135 3135 3136 3136 3137 3138 3138 3138 3138 3138 3138 3138 3139 3140 3141 3142 3142 3142 3143 3144 3144 3145 3146 3146 3147 3150 3151 3152 3153 3155 3156 3157 3158 3159 3160 3161 3162 3162 3163 3164 3165 3165 3166 3167 3167 3167 3167 3168 3169 3169 3169 3169 3170 3170 3170 3170 3171 3171 3171 3172 3172 3173 3173 3174 3174 3174 3174 3174 3174 3174 3174 3174 3174 3174 3174 3174 3174
3130 3130 3131 3131 3132 3132 3132 3132 3132 3133 3134 3134 3134 3135 3136 3136 3137 3137 3137 3137 3138 3138 3139 3140 3140 3141 3141 3142 3142 3143 3144 3144 3145 3146 3148 3149 3151 3152 3153 3154 3156 3156 3157 3159 3159 3160 3160 3161 3162 3163 3164 3164 3165 3166 3166 3165 3165 3166 3166 3167 3167 3167 3167 3168 3168 3168 3169 3169 3170 3170 3170 3171 3171 3171 3171 3172 3171 3171 3171 3171 3172 3172 3172 3172 3172
3128 3129 3129 3130 3130 3130 3130 3130 3130 3131 3132 3132 3132 3133 3135 3135 3135 3136 3136 3136 3137 3138 3138 3139 3139 3139 3140 3140 3140 3141 3142 3143 3144 3145 3146 3147 3148 3150 3151 3152 3153 3154 3155 3156 3157 3158 3158 3159 3160 3161 3162 3162 3162 3163 3164 3164 3163 3163 3163 3164 3164 3165 3165 3165 3165 3165 3166 3166 3167 3167 3168 3168 3168 3168 3168 3168 3168 3169 3168 3168 3169 3169 3170 3170 3170
3128 3128 3128 3129 3129 3129 3129 3129 3129 3130 3130 3130 3131 3132 3133 3133 3133 3134 3134 3134 3135 3136 3137 3138 3138 3138 3138 3139 3139 3140 3140 3142 3143 3143 3144 3145 3146 3148 3148 3149 3150 3151 3152 3153 3155 3156 3156 3157 3158 3158 3159 3160 3160 3160 3160 3161 3161 3161 3161 3161 3161 3162 3162 3162 3162 3162 3162 3163 3164 3164 3165 3165 3165 3165 3165 3165 3165 3165 3165 3165 3166 3166 3167 3167 3167
3127 3127 3127 3128 3128 3128 3128 3128 3128 3128 3129 3129 3129 3130 3131 3132 3132 3132 3133 3133 3134 3135 3136 3137 3137 3137 3137 3137 3138 3139 3140 3140 3141 3142 3142 3143 3145 3145 3145 3146 3147 3147 3149 3150 3152 3153 3154 3155 3155 3156 3157 3157 3158 3158 3158 3158 3159 3159 3159 3158 3158 3159 3159 3159 3160 3160 3160 3160 3161 3162 3162 3162 3163 3163 3163 3163 3163 3162 3163 3163 3163 3163 3164 3164 3165
3127 3127 3127 3127 3127 3127 3127 3127 3127 3127 3127 3128 3128 3129 3129 3130 3130 3130 3131 3132 3132 3133 3134 3135 3135 3136 3136 3136 3136 3137 3138 3139 3140 3141 3141 3142 3143 3142 3142 3144 3145 3146 3147 3148 3149 3150 3151 3152 3153 3153 3154 3154 3155 3156 3156 3156 3156 3156 3156 3156 3156 3156 3157 3157 3157 3157 3157 3157 3158 3159 3159 3160 3160 3160 3160 3160 3160 3160 3160 3160 3160 3160 3161 3161 3162
3126 3126 3126 3126 3126 3126 3126 3126 3126 3126 3126 3127 3127 3128 3128 3128 3129 3129 3129 3130 3131 3131 3132 3132 3133 3134 3135 3135 3135 3135 3136 3137 3138 3139 3140 3140 3141 3140 3140 3142 3144 3145 3145 3145 3146 3147 3148 3149 3150 3150 3151 3151 3152 3153 3153 3154 3154 3154 3154 3154 3154 3154 3154 3155 3155 3155 3155 3155 3155 3155 3156 3157 3157 3157 3157 3157 3157 3157 3157 3157 3157 3157 3158 3158 3159
3125 3125 3125 3125 3126 3126 3126 3126 3126 3126 3125 3126 3126 3127 3127 3127 3127 3127 3128 3128 3129 3129 3130 3130 3131 3132 3133 3133 3134 3134 3135 3136 3137 3138 3138 3139 3139 3139 3139 3140 3141 3141 3142 3143 3144 3145 3146 3147 3147 3148 3148 3148 3149 3150 3150 3151 3151 3151 3152 3152 3152 3152 3152 3152 3152 3152 3152 3152 3153 3153 3153 3154 3154 3154 3154 3154 3154 3154 3154 3154 3154 3155 3155 3155 3156
3124 3124 3124 3124 3125 3125 3125 3125 3125 3125 3125 3125 3125 3126 3126 3126 3126 3126 3127 3127 3127 3128 3128 3129 3129 3130 3130 3131 3132 3132 3133 3134 3134 3136 3137 3137 3137 3137 3138 3138 3138 3139 3140 3141 3142 3142 3143 3144 3145 3145 3145 3145 3146 3147 3147 3148 3149 3149 3149 3150 3150 3150 3150 3150 3150 3150 3150 3150 3150 3151 3151 3152 3152 3151 3151 3151 3151 3151 3151 3151 3152 3152 3152 3152 3153
3123 3123 3123 3123 3123 3124 3124 3124 3124 3124 3124 3124 3124 3125 3125 3125 3125 3125 3126 3126 3126 3126 3127 3127 3127 3128 3128 3129 3129 3130 3131 3131 3132 3133 3134 3134 3135 3135 3136 3137 3137 3137 3138 3138 3139 3139 3140 3141 3142 3142 3143 3143 3143 3144 3145 3145 3146 3146 3146 3147 3147 3147 3147 3147 3147 3147 3148 3148 3148 3148 3149 3149 3150 3149 3149 3149 3149 3148 3148 3149 3149 3150 3150 3150 3150
3123 3123 3123 3122 3123 3123 3123 3123 3123 3123 3123 3123 3123 3124 3124 3124 3125 3125 3125 3125 3125 3125 3126 3126 3126 3126 3126 3127 3127 3128 3129 3129 3130 3130 3131 3131 3132 3132 3133 3134 3134 3135 3136 3136 3137 3137 3137 3138 3139 3139 3140 3141 3141 3141 3142 3143 3143 3143 3143 3143 3143 3144 3144 3144 3145 3145 3145 3145 3145 3145 3146 3147 3147 3147 3147 3147 3147 3146 3146 3146 3147 3147 3147 3148 3148
3123 3122 3122 3122 3122 3122 3122 3122 3122 3123 3123 3123 3123 3123 3123 3123 3124 3124 3124 3124 3124 3125 3125 3125 3125 3126 3126 3126 3126 3126 3127 3127 3128 3128 3128 3129 3129 3130 3130 3131 3131 3132 3133 3133 3134 3134 3135 3136 3136 3137 3138 3138 3138 3139 3139 3139 3139 3138 3138 3140 3140 3141 3141 3141 3141 3141 3141 3142 3142 3142 3143 3144 3145 3145 3145 3145 3145 3145 3144 3144 3144 3144 3144 3145 3145
3122 3122 3122 3122 3122 3122 3122 3122 3122 3122 3122 3122 3122 3122 3122 3123 3123 3123 3123 3123 3124 3124 3124 3125 3125 3125 3125 3125 3125 3125 3126 3126 3126 3126 3127 3127 3127 3127 3128 3128 3129 3129 3130 3131 3131 3132 3132 3132 3133 3133 3134 3134 3135 3136 3135 3136 3134 3133 3134 3136 3136 3137 3137 3137 3138 3138 3138 3138 3139 3139 3140 3141 3142 3142 3142 3142 3142 3143 3142 3142 3142 3141 3141 3142 3142
3122 3121 3121 3121 3121 3121 3121 3121 3121 3121 3121 3121 3121 3121 3121 3121 3122 3122 3122 3122 3122 3123 3123 3123 3124 3124 3124 3124 3124 3125 3125 3125 3125 3125 3125 3125 3125 3125 3126 3126 3127 3127 3128 3129 3129 3129 3130 3130 3130 3130 3130 3130 3131 3132 3132 3131 3130 3130 3131 3132 3132 3133 3133 3133 3134 3134 3135 3135 3135 3135 3136 3137 3138 3139 3139 3139 3139 3140 3140 3140 3140 3140 3139 3139 3139
3121 3121 3121 3121 3121 3121 3121 3121 3120 3120 3120 3120 3120 3120 3120 3120 3121 3121 3121 3121 3121 3121 3121 3122 3122 3122 3122 3122 3123 3123 3123 3124 3124 3124 3124 3124 3124 3124 3124 3124 3125 3125 3126 3127 3127 3127 3127 3128 3127 3127 3127 3127 3128 3128 3128 3127 3126 3127 3128 3128 3128 3128 3128 3128 3129 3130 3131 3131 3132 3132 3132 3133 3134 3135 3135 3135 3135 3136 3137 3138 3137 3138 3138 3137 3136
3120 3120 3120 3120 3120 3120 3120 3120 3120 3120 3120 3120 3120 3119 3119 3119 3120 3120 3120 3120 3120 3120 3120 3120 3120 3120 3120 3120 3121 3121 3121 3122 3122 3122 3122 3122 3122 3122 3122 3122 3123 3123 3124 3124 3125 3125 3125 3125 3125 3125 3125 3125 3124 3125 3125 3123 3122 3124 3124 3124 3125 3124 3124 3125 3126 3126 3127 3127 3128 3128 3128 3129 3130 3130 3131 3132 3132 3132 3133 3134 3134 3134 3135 3135 3134
3119 3119 3119 3119 3119 3119 3119 3119 3119 3119 3119 3119 3119 3119 3119 3119 3118 3118 3118 3118 3119 3119 3118 3118 3118 3118 3118 3118 3119 3119 3119 3119 3119 3120 3120 3120 3120 3120 3120 3120 3120 3121 3121 3122 3123 3123 3122 3122 3122 3122 3122 3122 3121 3121 3121 3120 3119 3121 3121 3121 3121 3121 3121 3122 3122 3122 3123 3123 3124 3124 3124 3125 3125 3126 3127 3127 3128 3128 3129 3130 3131 3131 3131 3131 3132
3117 3118 3118 3118 3118 3118 3118 3119 3119 3119 3119 3118 3118 3118 3118 3118 3118 3118 3117 3117 3117 3117 3117 3117 3116 3116 3117 3117 3117 3117 3116 3116 3117 3117 3117 3118 3118 3118 3119 3119 3119 3119 3119 3119 3119 3120 3120 3120 3120 3119 3119 3119 3119 3119 3118 3117 3117 3118 3118 3117 3117 3117 3118 3119 3118 3118 3118 3119 3119 3120 3120 3121 3121 3122 3122 3123 3124 3124 3125 3125 3126 3127 3127 3127 3128
3116 3116 3116 3116 3117 3117 3117 3117 3118 3118 3118 3118 3118 3118 3118 3118 3117 3117 3116 3116 3116 3115 3115 3115 3115 3115 3115 3115 3115 3115 3115 3115 3114 3114 3115 3115 3115 3116 3116 3116 3117 3117 3117 3117 3116 3116 3117 3117 3116 3117 3116 3116 3116 3116 3116 3115 3115 3115 3115 3114 3113 3114 3114 3114 3114 3114 3114 3115 3115 3115 3116 3116 3117 3117 3118 3118 3119 3120 3120 3121 3121 3123 3123 3124 3124
3114 3114 3114 3115 3115 3115 3115 3116 3116 3117 3117 3117 3117 3117 3117 3117 3116 3116 3115 3115 3114 3114 3114 3114 3113 3113 3113 3113 3113 3113 3113 3113 3113 3113 3113 3113 3113 3113 3113 3114 3114 3114 3115 3115 3114 3114 3114 3114 3113 3113 3113 3113 3113 3113 3112 3112 3112 3112 3112 3111 3110 3110 3110 3110 3110 3110 3110 3111 3111 3111 3112 3112 3113 3113 3114 3114 3115 3115 3116 3116 3117 3118 3119 3120 3120
3112 3112 3112 3112 3113 3113 3113 3114 3114 3115 3115 3115 3115 3116 3116 3116 3115 3115 3114 3114 3113 3113 3113 3112 3112 3112 3111 3111 3111 3110 3110 3110 3110 3110 3110 3110 3110 3110 3110 3110 3110 3111 3111 3111 3111 3111 3110 3111 3110 3110 3110 3110 3110 3109 3109 3109 3109 3108 3108 3107 3107 3106 3106 3107 3107 3106 3106 3107 3108 3108 3108 3108 3109 3109 3110 3110 3110 3111 3111 3112 3112 3113 3114 3115 3116
3109 3109 3109 3109 3110 3111 3111 3112 3112 3112 3113 3113 3113 3113 3113 3114 3113 3113 3113 3112 3112 3112 3112 3111 3111 3110 3110 3109 3109 3108 3108 3108 3108 3107 3107 3107 3107 3107 3107 3107 3106 3107 3107 3107 3107 3107 3106 3107 3107 3107 3106 3106 3107 3106 3105 3105 3105 3105 3105 3104 3103 3103 3102 3102 3103 3102 3101 3102 3104 3104 3104 3104 3105 3105 3105 3106 3106 3107 3107 3107 3108 3109 3110 3111 3112
3107 3107 3107 3107 3107 3108 3108 3109 3110 3110 3110 3111 3111 3111 3111 3111 3111 3111 3111 3111 3110 3110 3110 3110 3109 3109 3108 3108 3107 3107 3106 3106 3105 3105 3104 3104 3104 3104 3104 3103 3103 3103 3103 3103 3103 3102 3102 3102 3103 3103 3103 3103 3103 3102 3102 3101 3101 3101 3101 3101 3099 3099 3098 3098 3099 3099 3097 3097 3099 3100 3100 3100 3100 3101 3101 3101 3102 3103 3103 3103 3103 3104 3105 3106 3107
3104 3104 3104 3104 3104 3104 3105 3106 3106 3107 3107 3108 3108 3108 3108 3108 3108 3108 3108 3108 3108 3108 3107 3107 3107 3107 3106 3106 3106 3105 3104 3104 3103 3103 3102 3102 3101 3101 3100 3100 3099 3099 3099 3099 3099 3099 3098 3097 3098 3098 3098 3099 3099 3099 3098 3098 3097 3097 3097 3096 3096 3095 3094 3094 3094 3094 3094 3094 3094 3095 3095 3095 3095 3096 3096 3097 3097 3098 3099 3099 3099 3099 3100 3101 3102
3100 3100 3101 3101 3101 3101 3101 3102 3102 3103 3104 3104 3105 3105 3105 3106 3106 3105 3105 3105 3105 3105 3104 3104 3104 3104 3104 3103 3103 3102 3102 3101 3101 3100 3100 3099 3098 3098 3097 3096 3096 3095 3095 3095 3095 3095 3095 3094 3094 3093 3093 3094 3094 3094 3095 3094 3093 3093 3092 3092 3092 3091 3090 3090 3090 3090 3090 3090 3090 3090 3090 3091 3090 3091 3091 3092 3092 3093 3094 3095 3095 3095 3095 3096 3097
3096 3097 3098 3098 3098 3099 3098 3098 3099 3099 3100 3100 3101 3101 3102 3103 3103 3103 3102 3102 3101 3101 3101 3101 3101 3100 3100 3100 3099 3099 3098 3098 3098 3097 3097 3096 3095 3095 3094 3093 3092 3091 3091 3091 3091 3091 3091 3091 3090 3090 3089 3089 3089 3089 3090 3089 3088 3089 3088 3087 3087 3087 3087 3086 3086 3086 3085 3085 3085 3085 3086 3086 3086 3086 3087 3087 3087 3088 3089 3089 3090 3090 3090 3091 3092
3093 3094 3095 3095 3095 3096 3095 3095 3095 3095 3096 3096 3097 3098 3099 3100 3100 3099 3098 3098 3098 3097 3097 3097 3097 3096 3096 3096 3095 3095 3095 3094 3094 3093 3093 3092 3092 3091 3090 3089 3088 3087 3087 3086 3086 3086 3086 3086 3086 3086 3086 3085 3085 3085 3085 3084 3083 3083 3083 3083 3082 3082 3082 3082 3082 3082 3082 3081 3081 3081 3081 3081 3081 3081 3082 3082 3083 3083 3083 3084 3084 3085 3086 3086 3087
3090 3090 3091 3091 3092 3092 3091 3090 3091 3092 3092 3092 3093 3095 3096 3096 3095 3095 3094 3094 3094 3093 3093 3092 3092 3092 3092 3091 3091 3091 3091 3090 3089 3089 3088 3087 3087 3086 3086 3085 3083 3083 3082 3082 3081 3081 3081 3080 3080 3080 3080 3080 3081 3081 3081 3080 3079 3077 3077 3077 3077 3077 3078 3077 3078 3078 3077 3077 3076 3076 3076 3076 3076 3076 3076 3077 3078 3078 3078 3078 3079 3080 3080 3081 3081
3085 3085 3086 3087 3088 3088 3087 3086 3087 3088 3088 3088 3089 3090 3090 3090 3090 3090 3090 3090 3089 3089 3089 3088 3088 3087 3087 3087 3086 3086 3086 3086 3085 3084 3084 3083 3082 3081 3080 3080 3078 3077 3077 3076 3076 3076 3075 3075 3075 3075 3074 3074 3075 3076 3076 3075 3074 3073 3072 3071 3070 3071 3072 3072 3073 3073 3072 3072 3071 3071 3071 3071 3071 3071 3071 3071 3072 3073 3073 3073 3074 3075 3075 3075 3076
3080 3080 3081 3082 3083 3083 3082 3082 3083 3083 3083 3084 3085 3085 3085 3085 3085 3085 3086 3085 3085 3085 3084 3084 3083 3082 3082 3082 3081 3081 3081 3081 3080 3079 3079 3078 3077 3076 3075 3074 3073 3072 3071 3071 3070 3070 3069 3069 3069 3069 3068 3068 3068 3069 3069 3069 3069 3068 3067 3066 3065 3064 3065 3065 3066 3067 3067 3066 3065 3065 3066 3066 3065 3065 3066 3066 3067 3067 3068 3068 3069 3070 3069 3069 3070
3076 3075 3076 3077 3078 3078 3078 3078 3078 3079 3079 3080 3080 3079 3079 3079 3080 3080 3081 3080 3080 3080 3079 3079 3078 3077 3076 3076 3076 3075 3075 3075 3075 3074 3073 3072 3071 3070 3070 3069 3068 3067 3066 3065 3064 3064 3063 3062 3062 3062 3062 3061 3061 3061 3061 3061 3062 3061 3061 3060 3059 3059 3058 3058 3059 3060 3061 3060 3059 3058 3060 3061 3060 3059 3059 3060 3061 3061 3061 3062 3064 3064 3064 3064 3064
3071 3071 3071 3072 3073 3074 3074 3074 3074 3074 3074 3075 3075 3074 3074 3075 3075 3075 3075 3075 3075 3074 3073 3073 3072 3072 3071 3070 3070 3069 3069 3069 3069 3068 3067 3066 3065 3064 3063 3063 3063 3062 3061 3060 3059 3058 3057 3056 3055 3055 3055 3055 3054 3053 3053 3053 3053 3053 3053 3053 3053 3053 3053 3052 3051 3052 3054 3054 3053 3052 3053 3054 3055 3054 3053 3054 3055 3055 3055 3056 3058 3058 3058 3058 3059
3066 3067 3067 3067 3068 3069 3069 3069 3069 3069 3070 3069 3069 3069 3069 3070 3070 3070 3069 3069 3069 3068 3068 3067 3067 3066 3065 3065 3064 3064 3064 3063 3063 3062 3061 3060 3058 3057 3056 3056 3056 3055 3055 3054 3053 3052 3052 3050 3049 3049 3049 3048 3047 3046 3046 3045 3044 3044 3045 3045 3044 3045 3045 3045 3045 3045 3046 3047 3047 3046 3045 3047 3049 3048 3047 3047 3049 3049 3049 3049 3051 3052 3052 3052 3053
3061 3061 3062 3062 3062 3063 3064 3064 3063 3064 3064 3064 3064 3064 3065 3065 3065 3064 3063 3063 3063 3063 3063 3062 3062 3061 3060 3060 3059 3058 3058 3057 3057 3056 3055 3053 3052 3051 3050 3049 3049 3048 3047 3047 3046 3046 3045 3044 3043 3042 3042 3042 3041 3041 3040 3039 3038 3037 3037 3037 3037 3036 3036 3036 3037 3038 3039 3040 3041 3039 3038 3040 3042 3042 3041 3042 3043 3044 3042 3041 3043 3046 3046 3046 3047
3055 3056 3056 3057 3057 3058 3058 3058 3057 3058 3058 3058 3059 3059 3059 3059 3059 3058 3058 3058 3058 3058 3058 3057 3056 3056 3055 3054 3054 3053 3052 3051 3050 3049 3048 3047 3045 3044 3043 3043 3042 3042 3041 3040 3040 3040 3039 3037 3036 3035 3035 3035 3035 3034 3034 3033 3032 3031 3031 3030 3030 3029 3029 3029 3029 3030 3031 3032 3034 3033 3031 3032 3034 3036 3036 3036 3036 3037 3037 3034 3035 3040 3041 3040 3040
3050 3050 3051 3051 3052 3052 3052 3052 3052 3053 3052 3053 3053 3054 3053 3053 3053 3053 3053 3053 3053 3053 3053 3052 3051 3050 3049 3049 3049 3048 3046 3045 3043 3042 3041 3039 3038 3037 3036 3036 3035 3034 3034 3034 3034 3033 3032 3031 3030 3029 3028 3028 3027 3027 3027 3026 3026 3025 3023 3023 3024 3023 3022 3022 3021 3022 3023 3024 3026 3026 3024 3025 3027 3029 3030 3031 3030 3031 3031 3028 3028 3033 3036 3035 3034
3045 3045 3045 3045 3046 3046 3046 3046 3047 3047 3047 3047 3048 3048 3047 3048 3048 3048 3049 3049 3049 3048 3048 3047 3045 3045 3043 3043 3043 3042 3041 3039 3038 3036 3034 3032 3030 3029 3028 3028 3027 3027 3027 3026 3026 3025 3023 3023 3023 3023 3022 3022 3021 3020 3019 3019 3019 3017 3015 3016 3016 3016 3015 3014 3013 3013 3014 3015 3016 3017 3017 3018 3020 3021 3024 3024 3024 3024 3024 3022 3022 3027 3030 3030 3029
3039 3039 3040 3040 3040 3041 3041 3041 3042 3042 3042 3042 3042 3042 3043 3043 3044 3044 3045 3045 3044 3043 3042 3041 3040 3039 3038 3037 3036 3036 3035 3034 3033 3031 3028 3026 3024 3022 3021 3020 3019 3019 3019 3018 3017 3015 3014 3014 3015 3014 3014 3014 3013 3013 3012 3012 3012 3011 3009 3008 3007 3007 3007 3007 3006 3005 3005 3006 3008 3008 3010 3011 3012 3014 3017 3017 3016 3017 3018 3016 3016 3020 3024 3024 3024